EHI
0 0 0 0 0 0 0 0 0 0 0 0 0 0 0 0 0 0 0 0 0 0 0 0 0 0 0 1 2 2 1 0 0 0 0 0 0 0 0 0 0 0 0 0
0 0 0 0 0 0 0 0 0 0 0 0 0 0 0 0 0 0 0 0 0 0 0 0 0 0 0 0 1 1 1 0 0 0 0 0 0 0 0 0 0 0 0 0
0 0 0 0 0 0 0 0 0 0 0 0 0 0 0 0 0 0 0 0 0 0 0 0 0 0 0 0 0 0 0 0 0 0 0 0 0 0 0 0 0 0 0 0
0 0 0 0 0 0 0 0 0 0 0 0 0 0 0 0 0 0 0 0 0 0 0 0 0 0 0 0 0 0 0 0 0 0 0 0 0 0 0 0 0 0 0 0
0 0 0 0 0 0 0 0 0 0 0 0 0 0 0 0 0 0 0 0 0 0 0 0 0 0 0 0 0 0 0 0 0 0 0 0 0 0 0 0 0 0 0 0
0 0 0 0 0 0 0 0 0 0 0 0 0 0 0 0 0 0 0 0 0 0 0 0 0 0 0 0 0 0 0 0 0 0 0 0 0 0 0 0 0 0 0 0
0 0 0 0 0 0 0 0 0 0 0 0 0 0 0 0 0 0 0 0 0 0 0 0 0 0 0 0 0 0 0 0 0 0 0 0 0 0 0 0 0 0 0 0
0 0 0 0 0 0 0 0 0 0 0 0 0 0 0 0 0 0 0 0 0 0 0 0 0 0 0 0 0 0 0 0 0 0 0 0 0 0 0 0 0 0 0 0
0 0 0 0 0 0 0 0 0 0 0 0 0 0 0 0 0 0 0 0 0 0 0 0 0 0 0 0 0 0 0 0 0 0 0 0 0 0 0 0 0 0 0 0
0 0 0 0 0 0 0 0 0 0 0 0 0 0 0 0 0 0 0 0 0 0 0 0 0 0 0 0 0 0 0 0 0 0 0 0 0 0 0 0 0 0 0 0
0 0 0 0 0 0 0 0 0 0 0 0 0 0 0 0 0 0 0 0 0 0 0 0 0 0 0 0 0 0 0 0 0 0 0 0 0 0 0 0 0 0 0 0
0 0 0 0 0 0 0 0 0 0 0 0 0 0 0 0 0 0 0 0 0 0 0 0 0 0 0 0 0 0 0 0 0 0 0 0 0 0 0 0 0 0 0 0
0 0 0 0 0 0 0 0 0 0 0 0 0 0 0 0 0 0 0 0 0 0 0 0 0 0 0 0 0 0 0 0 0 0 0 0 0 0 0 0 0 0 0 0
0 0 0 0 0 0 0 0 0 0 0 0 0 0 0 0 0 0 0 0 0 0 0 0 0 0 0 0 0 0 0 0 0 0 0 0 0 0 0 0 0 0 0 0
0 0 0 0 0 0 0 0 0 0 0 0 0 0 0 0 0 0 0 0 0 0 0 0 0 0 0 0 0 0 0 0 0 0 0 0 0 0 0 0 0 0 0 0
0 0 0 0 0 0 0 0 0 0 0 0 0 0 0 0 0 0 0 0 0 0 0 0 0 0 0 0 0 0 0 0 0 0 0 0 0 0 0 0 0 0 0 0
0 0 0 0 0 0 0 0 0 0 0 0 0 0 0 0 0 0 0 0 0 0 0 0 0 0 0 0 0 0 0 0 0 0 0 0 0 0 0 0 0 0 0 0
0 0 0 0 0 0 0 0 0 0 0 0 0 0 0 0 0 0 0 0 0 0 0 0 0 0 0 0 0 0 0 0 0 0 0 0 0 0 0 0 0 0 0 0
0 0 0 0 0 0 0 0 0 0 0 0 0 0 0 0 0 0 0 0 0 0 0 0 0 0 0 0 0 0 0 0 0 0 0 0 0 0 0 0 0 0 0 0
0 0 0 0 0 0 0 0 0 0 0 0 0 0 0 0 0 0 0 0 0 0 0 0 0 0 0 0 0 0 0 0 0 0 0 0 0 0 0 0 0 0 0 0
0 0 0 0 0 0 0 0 0 0 0 0 0 0 0 0 0 0 0 0 0 0 0 0 0 0 0 0 0 0 0 0 0 0 0 0 0 0 0 0 0 0 0 0
0 0 0 0 0 0 0 0 0 0 0 0 0 0 0 0 0 0 0 0 0 0 0 0 0 0 0 0 0 0 0 0 0 0 0 0 0 0 0 0 0 0 0 0
0 0 0 0 0 0 0 0 0 0 0 0 0 0 0 0 0 0 0 0 0 0 0 0 0 0 0 0 0 0 0 0 0 0 0 0 0 0 0 0 0 0 0 0
0 0 0 0 0 0 0 0 0 0 0 0 0 0 0 0 0 0 0 0 0 0 0 0 0 0 0 0 0 0 0 0 0 0 0 0 0 0 0 0 0 0 0 0
0 0 0 0 0 0 0 0 0 0 0 0 0 0 0 0 0 0 0 0 0 0 0 0 0 0 0 0 0 0 0 0 0 0 0 0 0 0 0 0 0 0 0 0
0 0 0 0 0 0 0 0 0 0 0 0 0 0 0 0 0 0 0 0 0 0 0 0 0 0 0 0 0 0 0 0 0 0 0 0 0 0 0 0 0 0 0 0
Wind_Speed
2 3 3 6 6 4 4 3 4 4 2 2 6 9 8 4 3 5 5 4 4 5 4 2 2 2 1 1 2 3 3 3 2 2 2 2 2 2 1 1 2 2 3 3
3 4 6 3 3 2 3 4 4 4 1 2 5 9 7 5 5 5 6 5 5 4 3 2 2 1 2 2 3 3 3 3 3 3 2 2 2 1 1 1 1 2 2 3
5 3 2 3 3 3 4 5 5 4 3 2 3 7 5 4 3 3 4 4 4 5 5 4 3 3 2 2 3 4 4 3 4 3 2 2 2 1 1 1 1 1 2 2
4 3 2 3 4 5 6 4 4 3 1 3 0 6 6 4 4 5 5 4 5 5 4 4 3 3 3 3 3 4 4 3 3 4 4 4 3 2 2 2 2 1 2 2
3 2 3 4 4 5 4 0 2 2 3 3 2 4 8 2 5 6 5 5 5 5 4 4 4 4 3 2 2 3 3 4 4 4 5 5 3 2 1 2 2 2 1 2
3 1 3 4 1 3 3 3 3 2 2 5 6 5 9 5 7 4 4 4 4 4 4 4 2 2 1 1 1 1 3 3 4 4 5 6 5 4 4 3 3 3 2 2
3 3 1 1 2 1 3 4 2 3 2 7 3 5 11 6 5 5 5 5 4 3 3 2 2 2 2 1 1 2 2 3 3 4 5 5 5 6 6 5 4 3 2 2
3 5 4 2 4 5 4 5 6 5 5 5 2 8 9 5 4 3 4 3 2 2 2 3 3 3 3 2 2 2 3 3 3 4 4 4 4 4 4 4 4 4 4 3
5 5 0 1 1 6 5 4 3 4 1 4 7 8 9 3 3 2 2 2 3 3 3 3 2 2 2 3 3 4 3 3 3 4 3 3 4 4 4 4 3 3 3 3
4 3 2 1 2 1 3 6 4 4 3 6 7 6 7 5 4 3 3 4 3 2 3 3 2 2 2 3 3 3 3 3 3 3 3 3 4 4 3 3 4 4 3 3
2 2 2 1 5 6 4 4 4 4 4 5 6 9 6 7 6 5 5 4 4 3 3 3 3 2 2 2 2 2 2 2 2 3 3 3 3 3 3 3 4 4 4 4
2 3 3 5 2 2 5 6 7 6 6 5 4 10 3 4 4 4 5 4 4 3 3 3 2 2 2 2 2 2 2 3 3 3 3 4 3 3 4 4 4 4 5 5
3 3 1 3 1 0 2 4 4 3 3 5 6 11 2 2 3 4 5 5 4 3 3 2 2 2 2 2 3 3 3 3 3 3 3 3 3 4 4 5 4 4 4 4
3 3 6 8 5 4 5 6 6 6 5 7 11 11 8 6 6 6 6 5 4 4 3 3 3 3 3 3 3 4 4 3 3 3 3 4 4 5 4 4 4 4 4 4
3 4 5 6 5 4 6 8 9 11 10 10 11 11 13 8 6 6 5 4 4 5 4 4 4 4 3 3 3 3 4 3 3 3 4 4 4 3 3 3 4 3 4 4
2 2 2 5 4 5 9 11 12 13 11 11 11 14 10 5 3 4 5 4 5 5 5 4 4 4 4 4 4 4 4 3 3 3 4 4 3 3 3 3 3 3 4 4
3 3 2 4 2 3 10 10 12 9 9 9 13 13 4 4 4 4 4 4 5 5 5 4 4 4 4 4 4 4 4 3 3 3 3 3 3 3 3 3 3 4 4 3
5 4 2 2 1 8 8 1 4 7 7 7 8 6 4 4 4 3 3 3 5 5 5 5 4 5 4 4 4 4 3 3 2 3 3 2 2 3 3 3 3 4 3 4
5 5 3 2 4 9 7 2 3 4 7 5 7 7 4 2 3 4 3 2 3 4 4 5 5 5 4 4 4 3 3 3 2 2 3 3 2 3 3 3 4 3 3 4
2 3 3 3 4 8 7 2 1 2 6 3 5 6 3 0 2 4 3 3 3 4 4 5 5 4 4 4 3 3 3 3 3 3 3 3 2 3 3 4 3 3 3 3
3 3 5 6 6 10 6 2 2 3 7 2 3 3 2 3 4 3 2 3 3 4 5 5 4 4 4 4 3 3 3 4 4 4 4 3 2 3 3 3 2 2 2 2
7 6 6 5 6 11 2 4 6 6 2 1 1 1 2 2 3 3 3 3 4 5 5 5 5 5 5 4 3 3 4 5 4 3 3 3 3 2 2 2 2 2 2 2
7 8 6 9 9 4 4 5 3 1 2 2 1 1 1 1 2 3 2 3 4 4 5 5 4 5 5 5 4 4 5 5 4 3 3 3 3 2 2 1 2 1 2 2
5 2 3 5 8 5 4 3 3 2 2 2 1 1 1 2 3 3 2 3 3 4 4 4 4 5 6 6 5 4 5 5 4 3 3 3 3 3 2 2 1 1 2 2
5 5 4 6 6 4 4 4 3 1 1 1 2 1 1 1 3 2 2 3 3 4 4 3 4 4 6 6 6 6 5 4 4 3 3 3 3 3 3 2 2 2 3 3
5 7 7 7 5 4 4 1 1 1 1 1 1 2 2 1 2 2 2 2 2 3 3 4 4 4 5 5 6 6 5 4 4 3 3 3 3 3 3 2 3 4 3 5
Wind_Direction
63 90 203 210 199 199 178 198 246 256 261 228 240 258 270 255 232 239 238 241 251 253 264 265 259 243 207 208 191 191 188 185 161 160 167 169 175 162 139 114 101 130 139 145
74 237 238 199 182 192 197 227 256 282 288 233 265 268 262 242 226 224 222 229 244 263 284 286 273 256 218 220 213 198 199 195 186 181 177 175 170 167 162 144 115 125 143 155
189 235 183 159 175 194 225 214 234 260 326 314 309 288 252 252 231 240 231 228 236 236 248 260 260 244 236 233 232 211 207 203 194 175 143 116 107 107 135 161 169 159 159 154
223 248 173 173 200 186 238 232 223 240 263 282 253 282 271 246 264 252 248 239 243 246 244 246 253 256 251 243 245 216 200 199 192 174 167 161 174 189 199 189 189 172 166 165
234 199 187 209 221 181 218 145 178 205 202 280 244 244 277 270 259 257 248 241 246 245 240 241 240 243 248 249 242 223 194 197 189 184 182 180 188 193 165 159 175 175 172 175
244 224 196 213 198 168 159 83 74 63 101 259 227 210 272 227 226 245 247 250 251 252 248 248 249 253 267 263 258 255 198 204 193 189 188 189 192 181 170 180 191 195 186 187
284 259 254 139 120 99 105 98 23 341 305 251 213 216 252 238 224 222 239 252 254 248 241 252 264 254 267 275 271 269 226 214 204 195 198 199 198 189 190 193 195 194 193 203
213 257 226 195 178 174 185 159 169 213 240 280 265 237 254 243 240 235 241 249 253 260 259 256 251 243 244 249 251 249 245 227 209 204 206 202 199 197 199 200 199 201 203 207
192 242 253 180 187 154 164 196 176 148 241 271 263 277 296 252 261 253 249 258 258 257 264 266 265 258 247 240 242 242 241 241 219 215 209 204 203 203 207 205 205 208 210 204
166 230 259 236 115 101 168 155 128 157 215 261 280 265 250 247 254 264 258 255 261 273 273 270 264 261 254 249 255 257 242 240 228 214 211 215 209 209 209 206 208 211 211 205
143 168 283 207 197 188 151 166 166 164 184 197 265 266 225 209 219 235 250 258 257 255 252 252 257 262 264 276 257 255 255 254 246 223 220 217 211 207 205 213 214 214 212 206
156 139 240 243 239 204 186 184 167 185 223 204 233 267 269 220 239 248 264 274 275 264 256 250 252 263 266 266 265 257 257 252 250 233 221 224 217 205 207 219 220 217 216 212
147 140 297 317 307 202 215 198 187 161 162 194 217 261 302 327 303 288 279 281 282 285 280 273 268 265 266 266 268 267 263 260 261 248 223 223 221 217 216 220 219 218 218 215
127 177 201 218 229 188 221 216 189 172 206 228 231 258 286 297 293 292 279 272 277 278 278 278 275 269 269 267 263 265 270 269 267 255 234 224 227 226 225 222 217 219 219 215
134 214 237 261 264 230 231 230 208 211 218 226 249 253 268 271 266 274 278 283 288 287 284 282 282 282 285 284 279 273 274 277 271 259 250 237 233 229 226 223 221 222 225 224
137 212 250 275 262 251 260 247 227 229 232 241 261 268 267 278 287 290 293 289 288 288 290 295 298 302 300 296 293 289 279 278 267 251 255 250 237 232 228 227 223 225 228 227
175 162 198 262 289 315 264 236 215 216 216 211 237 254 284 301 293 281 287 293 288 289 298 305 309 305 306 301 295 286 279 279 259 253 258 249 234 235 236 234 229 230 231 227
170 163 190 250 355 242 246 219 206 216 240 233 250 269 273 256 280 289 295 294 300 306 310 313 313 311 309 306 303 300 296 284 264 263 264 267 250 243 241 233 236 240 237 229
186 168 174 196 245 273 290 252 176 199 267 236 238 263 273 283 326 313 306 294 285 297 303 304 306 306 309 310 310 315 318 309 292 280 278 278 267 251 242 241 242 246 240 237
123 162 172 189 225 249 263 266 213 128 282 246 211 246 263 1 300 284 320 342 333 330 324 319 320 323 324 324 329 335 328 323 304 296 289 283 266 255 247 246 248 251 243 241
150 179 201 213 235 261 262 239 132 177 255 263 203 224 194 211 232 274 335 344 346 342 335 334 333 335 332 334 343 336 329 311 307 312 305 292 276 266 256 252 247 240 242 234
179 181 196 186 216 253 207 145 189 227 290 294 239 203 203 247 292 319 334 339 345 345 343 344 343 340 342 348 349 333 321 315 319 320 316 311 302 293 284 252 253 235 221 228
205 195 191 198 217 242 179 203 235 286 272 282 264 275 206 266 290 310 323 330 339 343 341 342 342 340 345 352 349 326 320 325 324 328 324 326 327 317 295 256 245 239 224 228
246 208 199 249 258 254 252 268 287 280 261 282 286 290 264 262 281 305 317 335 340 339 338 340 344 342 339 344 344 328 326 334 336 328 326 330 332 328 321 302 273 254 243 247
219 180 205 250 271 297 269 246 253 277 335 345 339 332 303 286 299 307 318 328 331 333 336 341 340 332 330 337 338 337 338 342 342 338 333 334 334 331 331 323 301 281 258 257
195 187 195 233 227 215 252 272 221 217 286 308 335 343 354 348 307 328 322 320 327 329 335 339 339 333 331 335 336 338 339 339 335 334 337 336 334 332 331 329 325 314 300 294